Regional Weather Roundup
Issued by NWS

Home | Current Version | Previous Version | Graphics & Text | Print | Product List | Glossary On
Versions: 1 2 3 4 5 6 7 8 9 10 11 12 13 14 15 16 17 18 19 20 21 22 23 24 25 26 27 28 29 30 31 32 33 34 35 36 37 38 39 40 41 42 43 44 45 46 47 48 49 50
215
ASUS45 KABQ 220710
RWRNM
NEW MEXICO REGIONAL WEATHER ROUNDUP
NATIONAL WEATHER SERVICE ALBUQUERQUE NM
100 AM MDT TUE MAY 22 2018

NOTE: "FAIR" MEANS FEW OR NO CLOUDS BELOW 12,000 FEET AGL WITH NO
       SIGNIFICANT WEATHER OR OBSTRUCTIONS TO VISION.

      THIS PRODUCT IS RELEASED AS TWO VERSIONS.  ONE VERSION NEAR
      THE TOP OF THE HOUR CONTAINING PRELIMINARY DATA FROM ALBUQUERQUE
      AND OTHER STATIONS.  A FINAL VERSION WITH ADDITIONAL DATA IS
      ISSUED ABOUT 10 MINUTES AFTER THE HOUR.

NMZ501-503-504-510>518-220800-
NORTHWEST PLATEAU/NORTHCENTRAL MOUNTAINS

CITY           SKY/WX    TMP DP  RH WIND       PRES   REMARKS
FARMINGTON     FAIR      57  40  52 E10       29.98S
LOS ALAMOS     FAIR      53  38  57 CALM      30.13S
SANTA FE       FAIR      48  47  96 NE7       30.10R
TAOS           FAIR      45  43  93 N12       30.16F
ANGEL FIRE     CLOUDY    37  36  97 CALM      30.22S FOG

$$
NMZ402-403-502-505>509-220800-
WESTCENTRAL MOUNTAINS/SOUTHWEST MOUNTAINS

CITY           SKY/WX    TMP DP  RH WIND       PRES   REMARKS
GALLUP         FAIR      54  39  57 E3        30.02S
GRANTS         FAIR      53  43  71 S10       30.06S
SILVER CITY    FAIR      57   7  13 N8        29.98R

$$
NMZ407-409-411-412-220800-
SOUTHERN DESERTS

CITY           SKY/WX    TMP DP  RH WIND       PRES   REMARKS
DEMING         FAIR      65  12  12 W6        29.91R
LAS CRUCES     FAIR      68  47  46 SW6       29.93F
HOLLOMAN AFB   FAIR      68  47  46 W9        29.93F
ALAMOGORDO     FAIR      66  50  55 NW9       29.91S
T OR C         FAIR      66  50  56 N12       29.93S

$$
NMZ519>523-220800-
CENTRAL VALLEYS/CENTRAL HIGHLANDS

CITY           SKY/WX    TMP DP  RH WIND       PRES   REMARKS
ALBUQUERQUE    FAIR      61  46  57 NE9       30.01F
DOUBLE EAGLE   FAIR      52  46  80 N9        30.05S
MORIARTY ARPT  FAIR      51  51 100 CALM      30.12R
CLINES CORNERS FAIR      49  46  90 E13       30.15S
BELEN          FAIR      54  49  83 W8        30.01R
SOCORRO        FAIR      59  49  68 NW5       29.99S

$$
NMZ524>526-539-540-220800-
SOUTHCENTRAL MOUNTAINS

CITY           SKY/WX    TMP DP  RH WIND       PRES   REMARKS
RUIDOSO        NOT AVBL

$$
NMZ527>531-220800-
NORTHEAST HIGHLANDS/NORTHEAST PLAINS

CITY           SKY/WX    TMP DP  RH WIND       PRES   REMARKS
LAS VEGAS      FAIR      47  45  93 E5        30.16R
RATON          FAIR      49  43  80 NW3       30.12R
CLAYTON        LGT RAIN  55  53  93 S28       30.09R

$$
NMZ532>537-220800-
EASTCENTRAL PLAINS

CITY           SKY/WX    TMP DP  RH WIND       PRES   REMARKS
SANTA ROSA     FAIR      56  55  95 E13       30.07F
TUCUMCARI      TSTM      60  57  89 S12       30.14R FOG
CANNON AFB     TSTM      55  55 100 NW28      30.11F
CLOVIS AIRPORT TSTM      55  54  94 NW26G36   30.13R

$$
NMZ028-029-538-220800-
SOUTHEAST PLAINS

CITY           SKY/WX    TMP DP  RH WIND       PRES   REMARKS
ROSWELL        HVY RAIN  60  58  92 NE24G30   30.00F FOG
ARTESIA        FAIR      66  59  77 SW5       30.04R THUNDER
CARLSBAD       MOCLDY    69  60  73 SE13      29.96R
HOBBS          FAIR      70  57  64 SE15      30.00F


$$




USA.gov is the U.S. government's official web portal to all federal, state and local government web resources and services.